GW2129 Weather Reports


Display with metric or nautical units.
time (UTC)temp
F
wind
direction
speed
MPH
gust
MPH
rain 1hr
in
rain 24hr
in
rain mn
in
humidity
%
barometer
mb
20260507040753 63 341 5.0 8.0 0.00 0.00 0.00 83 1014.5
20260507040249 64 346 4.0 9.0 0.00 0.00 0.00 83 1014.7
20260507035745 64 344 7.0 8.0 0.00 0.00 0.00 83 1014.6
20260507035240 64 335 6.0 8.0 0.00 0.00 0.00 83 1014.6
20260507034738 64 57 4.0 10.0 0.00 0.00 0.00 83 1014.4
20260507034234 64 6 8.0 9.0 0.00 0.00 0.00 83 1014.7
20260507033728 64 336 7.0 11.0 0.00 0.00 0.00 83 1014.7
20260507033225 64 358 7.0 8.0 0.00 0.00 0.00 83 1014.5
20260507032722 64 29 4.0 8.0 0.00 0.00 0.00 83 1014.7
20260507032218 64 304 7.0 7.0 0.00 0.00 0.00 83 1014.5
20260507031715 64 68 3.0 11.0 0.00 0.00 0.00 83 1014.5
20260507031212 64 24 2.0 9.0 0.00 0.00 0.00 83 1014.4
20260507030708 64 0 3.0 13.0 0.00 0.00 0.00 83 1014.1
20260507030206 64 334 8.0 10.0 0.00 0.00 0.00 82 1014.2
20260507025703 64 0 6.0 9.0 0.00 0.00 0.00 82 1014.2
20260507025200 64 332 5.0 8.0 0.00 0.00 0.00 82 1014.2
20260507024658 64 327 5.0 10.0 0.00 0.00 0.00 82 1014.1
20260507024155 64 3 2.0 9.0 0.00 0.00 0.00 82 1014.2
20260507023650 64 334 5.0 10.0 0.00 0.00 0.00 82 1014.2
20260507023148 64 323 3.0 9.0 0.00 0.00 0.00 82 1014.2
20260507022645 64 26 3.0 7.0 0.00 0.00 0.00 82 1013.8
20260507022140 64 331 5.0 7.0 0.00 0.00 0.00 82 1013.8
20260507021637 64 307 5.0 10.0 0.00 0.00 0.00 82 1013.5
20260507021132 64 315 4.0 11.0 0.00 0.00 0.00 82 1013.4
20260507020631 64 8 8.0 9.0 0.00 0.00 0.00 82 1013.5
20260507020126 64 26 3.0 5.0 0.00 0.00 0.00 82 1014.1
20260507015625 64 340 3.0 10.0 0.00 0.00 0.00 81 1013.3
20260507015122 64 352 6.0 13.0 0.00 0.00 0.00 81 1013.3
20260507014619 64 354 6.0 11.0 0.00 0.00 0.00 81 1013.5
20260507014115 64 340 3.0 8.0 0.00 0.00 0.00 82 1013.4
20260507013612 64 344 3.0 5.0 0.00 0.00 0.00 81 1013.9
20260507013108 64 323 5.0 7.0 0.00 0.00 0.00 81 1013.5
20260507012606 64 317 5.0 8.0 0.00 0.00 0.00 81 1013.6
20260507012101 64 317 8.0 9.0 0.00 0.00 0.00 81 1012.6
20260507011600 64 310 2.0 13.0 0.00 0.00 0.00 81 1013.3
20260507011055 64 343 7.0 11.0 0.00 0.00 0.00 81 1012.9
20260507010550 65 20 6.0 7.0 0.00 0.00 0.00 81 1012.6
20260507010047 65 343 3.0 10.0 0.00 0.00 0.00 81 1012.9
20260507005544 65 359 4.0 10.0 0.00 0.00 0.00 81 1012.7
20260507005040 65 359 5.0 10.0 0.00 0.00 0.00 80 1012.8
20260507004538 65 319 8.0 10.0 0.00 0.00 0.00 80 1013.1
20260507004035 65 327 12.0 14.0 0.00 0.00 0.00 80 1012.7
20260507003530 65 326 6.0 9.0 0.00 0.00 0.00 80 1012.5
20260507003026 65 15 7.0 10.0 0.00 0.00 0.00 80 1012.8
20260507002522 65 338 6.0 11.0 0.00 0.00 0.00 79 1012.3
20260507002019 66 22 7.0 10.0 0.00 0.00 0.00 79 1012.4
20260507001515 66 12 6.0 11.0 0.00 0.00 0.00 79 1012.2
20260507001013 66 319 9.0 12.0 0.00 0.00 0.00 78 1012.2
20260507000509 66 330 10.0 12.0 0.00 0.00 0.00 78 1012.3
20260507000005 66 355 5.0 11.0 0.00 0.00 0.00 78 1012.2
20260506235502 67 310 8.0 12.0 0.00 0.00 0.00 77 1011.9
20260506234957 67 350 7.0 12.0 0.00 0.00 0.00 77 1011.9
20260506234455 67 327 6.0 11.0 0.00 0.00 0.00 77 1011.9
20260506233952 68 101 3.0 7.0 0.00 0.00 0.00 77 1012.1
20260506233448 68 322 14.0 15.0 0.00 0.00 0.00 75 1012.1
20260506232940 68 7 10.0 14.0 0.00 0.00 0.00 75 1012.0
20260506232436 68 38 7.0 11.0 0.00 0.00 0.00 76 1011.6
20260506231932 68 12 7.0 16.0 0.00 0.00 0.00 75 1011.6
20260506231430 69 6 7.0 11.0 0.00 0.00 0.00 75 1011.6
20260506230926 69 309 9.0 13.0 0.00 0.00 0.00 75 1011.9
20260506230423 70 343 6.0 11.0 0.00 0.00 0.00 74 1011.8
20260506225919 71 343 5.0 11.0 0.00 0.00 0.00 73 1011.7
20260506225417 72 7 6.0 8.0 0.00 0.00 0.00 72 1011.5
20260506224914 72 39 7.0 11.0 0.00 0.00 0.00 72 1011.4
20260506224411 71 339 10.0 12.0 0.00 0.00 0.00 73 1011.3
20260506223907 72 312 9.0 13.0 0.00 0.00 0.00 72 1011.3
20260506223403 71 311 9.0 14.0 0.00 0.00 0.00 73 1011.2
20260506222900 72 28 6.0 14.0 0.00 0.00 0.00 73 1011.2
20260506222356 73 311 8.0 13.0 0.00 0.00 0.00 71 1011.0
20260506221854 74 333 7.0 15.0 0.00 0.00 0.00 71 1011.0
20260506221351 74 343 8.0 10.0 0.00 0.00 0.00 71 1011.0
20260506220848 74 326 4.0 15.0 0.00 0.00 0.00 72 1011.1
20260506220343 75 315 9.0 11.0 0.00 0.00 0.00 71 1011.1
20260506215841 75 2 8.0 19.0 0.00 0.00 0.00 71 1011.0
20260506215336 77 328 6.0 12.0 0.00 0.00 0.00 70 1010.7
20260506214833 77 19 6.0 12.0 0.00 0.00 0.00 70 1010.9
20260506214329 78 306 10.0 11.0 0.00 0.00 0.00 69 1010.8
20260506213828 78 51 3.0 10.0 0.00 0.00 0.00 69 1010.5
20260506213325 78 309 6.0 12.0 0.00 0.00 0.00 70 1010.5
20260506212822 78 12 3.0 13.0 0.00 0.00 0.00 70 1010.5
20260506212317 79 345 6.0 8.0 0.00 0.00 0.00 70 1010.7
20260506211813 79 335 6.0 13.0 0.00 0.00 0.00 70 1010.7
20260506211309 79 316 8.0 14.0 0.00 0.00 0.00 71 1010.6
20260506210807 79 17 5.0 11.0 0.00 0.00 0.00 72 1010.6
20260506210303 79 46 7.0 13.0 0.00 0.00 0.00 71 1010.6
20260506205800 79 31 4.0 9.0 0.00 0.00 0.00 71 1010.9
20260506205256 80 16 5.0 13.0 0.00 0.00 0.00 70 1010.7
20260506204753 80 27 4.0 8.0 0.00 0.00 0.00 72 1010.6
20260506204251 80 358 3.0 11.0 0.00 0.00 0.00 71 1010.6
20260506203748 79 308 8.0 13.0 0.00 0.00 0.00 73 1010.7
20260506203245 80 70 5.0 12.0 0.00 0.00 0.00 73 1011.0
20260506202742 81 3 4.0 7.0 0.00 0.00 0.00 74 1010.9
20260506202239 81 20 2.0 5.0 0.00 0.00 0.00 74 1011.1
20260506201736 81 318 3.0 8.0 0.00 0.00 0.00 73 1011.0
20260506201232 82 15 2.0 7.0 0.00 0.00 0.00 74 1010.9
20260506200729 81 313 4.0 12.0 0.00 0.00 0.00 73 1010.7
20260506200226 81 357 4.0 7.0 0.00 0.00 0.00 73 1010.8
20260506195722 80 108 3.0 9.0 0.00 0.00 0.00 75 1010.9
20260506195219 81 351 3.0 5.0 0.00 0.00 0.00 74 1010.7
20260506194716 81 26 2.0 8.0 0.00 0.00 0.00 74 1010.8
20260506194212 81 63 5.0 6.0 0.00 0.00 0.00 75 1010.9
20260506193711 80 110 3.0 6.0 0.00 0.00 0.00 76 1011.0
20260506193207 81 89 4.0 6.0 0.00 0.00 0.00 75 1011.0
20260506192704 81 86 2.0 5.0 0.00 0.00 0.00 75 1011.0
20260506192200 81 88 4.0 7.0 0.00 0.00 0.00 74 1010.9
20260506191657 81 120 3.0 6.0 0.00 0.00 0.00 75 1011.0
20260506191153 81 0 3.0 8.0 0.00 0.00 0.00 75 1010.9
20260506190650 82 111 4.0 6.0 0.00 0.00 0.00 76 1010.6
20260506190147 81 94 5.0 6.0 0.00 0.00 0.00 75 1010.9
20260506185644 81 74 4.0 6.0 0.00 0.00 0.00 77 1011.0
20260506185140 80 7 2.0 6.0 0.00 0.00 0.00 77 1011.1
20260506184638 80 1 3.0 7.0 0.00 0.00 0.00 76 1011.1
20260506184135 80 98 9.0 10.0 0.00 0.00 0.00 77 1011.4
20260506183632 79 70 3.0 6.0 0.00 0.00 0.00 79 1011.3
20260506183127 78 64 3.0 8.0 0.00 0.00 0.00 78 1011.2
20260506182625 78 124 3.0 8.0 0.00 0.00 0.00 77 1011.1
20260506182122 78 86 5.0 8.0 0.00 0.00 0.00 78 1011.3
20260506181620 77 86 6.0 6.0 0.00 0.00 0.00 79 1011.3
20260506181117 78 313 7.0 8.0 0.00 0.00 0.00 78 1011.3
20260506180614 77 56 2.0 4.0 0.00 0.00 0.00 79 1011.3
20260506180110 76 101 4.0 5.0 0.00 0.00 0.00 81 1011.2
20260506175606 75 99 2.0 3.0 0.00 0.00 0.00 82 1011.6
20260506175102 74 335 4.0 5.0 0.00 0.00 0.00 82 1011.6
20260506174602 74 345 2.0 5.0 0.00 0.00 0.00 83 1011.4
20260506174057 73 339 3.0 8.0 0.00 0.00 0.00 83 1011.5
20260506173555 73 12 6.0 7.0 0.00 0.00 0.00 83 1011.7
20260506173052 73 331 4.0 10.0 0.00 0.00 0.00 83 1011.8
20260506172549 75 338 7.0 11.0 0.00 0.00 0.00 82 1011.8
20260506172045 80 45 6.0 8.0 0.00 0.00 0.00 80 1011.5
20260506171543 81 94 2.0 6.0 0.00 0.00 0.00 77 1011.5
20260506171040 81 126 0.0 7.0 0.00 0.00 0.00 79 1011.4
20260506170537 81 82 5.0 7.0 0.00 0.00 0.00 78 1011.5
20260506170029 82 82 2.0 9.0 0.00 0.00 0.00 78 1011.6
20260506165528 82 130 1.0 5.0 0.00 0.00 0.00 78 1011.6
20260506165023 81 99 7.0 8.0 0.00 0.00 0.00 80 1011.9
20260506164520 79 93 4.0 5.0 0.00 0.00 0.00 84 1011.9
20260506164018 79 75 3.0 6.0 0.00 0.00 0.00 85 1011.8
20260506163514 79 97 4.0 4.0 0.00 0.00 0.00 86 1011.9
20260506163009 78 310 6.0 6.0 0.00 0.00 0.00 87 1012.0
20260506162506 78 345 4.0 5.0 0.00 0.00 0.00 88 1011.9
20260506161957 78 81 1.0 4.0 0.00 0.00 0.00 89 1011.9
20260506161455 78 60 1.0 3.0 0.00 0.00 0.00 89 1012.0
20260506160952 77 113 3.0 4.0 0.00 0.00 0.00 89 1012.1
20260506160450 77 0 2.0 3.0 0.00 0.00 0.00 90 1012.2
20260506155947 77 316 2.0 4.0 0.00 0.00 0.00 91 1012.2
20260506155444 77 3 2.0 4.0 0.00 0.00 0.00 91 1012.0
20260506153616 76 333 2.0 3.0 0.00 0.00 0.00 92 1011.7
20260506153114 76 75 2.0 3.0 0.00 0.00 0.00 92 1011.4
20260506152611 76 132 1.0 3.0 0.00 0.00 0.00 92 1011.2
20260506152109 76 49 2.0 3.0 0.00 0.00 0.00 92 1010.7
20260506151607 76 119 0.0 3.0 0.00 0.00 0.00 93 1010.9
20260506151103 76 99 2.0 3.0 0.00 0.00 0.00 93 1010.8
20260506150600 76 112 3.0 4.0 0.00 0.00 0.00 93 1010.8
20260506150057 76 11 0.0 0.0 0.00 0.00 0.00 94 1011.0
20260506145554 75 97 2.0 3.0 0.00 0.00 0.00 94 1011.0
20260506145051 75 100 2.0 3.0 0.00 0.00 0.00 94 1010.7
20260506144548 75 116 0.0 1.0 0.00 0.00 0.00 95 1010.7
20260506144045 75 117 1.0 2.0 0.00 0.00 0.00 95 1010.8
20260506143543 75 105 2.0 3.0 0.00 0.00 0.00 95 1010.6
20260506143041 75 122 2.0 3.0 0.00 0.00 0.00 95 1010.8
20260506142538 75 351 2.0 3.0 0.00 0.00 0.00 95 1010.9
20260506142037 75 355 0.0 2.0 0.00 0.00 0.00 96 1010.6
20260506141534 74 50 0.0 5.0 0.00 0.00 0.00 96 1010.7
20260506141032 75 109 2.0 3.0 0.00 0.00 0.00 96 1010.4
20260506140529 74 131 2.0 4.0 0.00 0.00 0.00 96 1010.3
20260506140026 74 158 1.0 5.0 0.00 0.00 0.00 95 1010.0
20260506135523 74 113 3.0 4.0 0.00 0.00 0.00 95 1009.9
20260506135019 74 104 3.0 4.0 0.00 0.00 0.00 95 1009.9
20260506134515 74 100 3.0 5.0 0.00 0.00 0.00 95 1009.6
20260506134012 74 89 4.0 4.0 0.00 0.00 0.00 95 1009.6
20260506133509 74 106 1.0 4.0 0.00 0.00 0.00 95 1009.6
20260506133000 74 89 6.0 6.0 0.00 0.00 0.00 95 1009.6
20260506132457 74 95 4.0 4.0 0.00 0.00 0.00 95 1009.4
20260506131955 74 120 2.0 3.0 0.00 0.00 0.00 95 1009.6
20260506131451 74 119 2.0 5.0 0.00 0.00 0.00 95 1009.5
20260506130948 74 96 3.0 5.0 0.00 0.00 0.00 95 1009.6
20260506130445 74 113 4.0 5.0 0.00 0.00 0.00 94 1009.5
20260506125942 74 95 2.0 3.0 0.00 0.00 0.00 94 1009.6
20260506125441 74 113 0.0 3.0 0.00 0.00 0.00 94 1009.6
20260506124938 74 102 1.0 3.0 0.00 0.00 0.00 94 1009.7
20260506124436 74 134 2.0 4.0 0.00 0.00 0.00 94 1009.5
20260506123934 74 133 2.0 3.0 0.00 0.00 0.00 94 1009.7
20260506123431 74 118 1.0 3.0 0.00 0.00 0.00 94 1009.6
20260506122928 74 97 0.0 2.0 0.00 0.00 0.00 94 1009.5
20260506122425 74 112 0.0 2.0 0.00 0.00 0.00 94 1009.5
20260506121924 74 57 0.0 2.0 0.00 0.00 0.00 94 1009.2
20260506121420 74 202 0.0 2.0 0.00 0.00 0.00 94 1009.4
20260506120917 74 113 2.0 2.0 0.00 0.00 0.00 93 1009.3
20260506120415 74 148 2.0 2.0 0.00 0.00 0.00 93 1009.4
20260506115912 75 126 1.0 2.0 0.00 0.00 0.00 93 1009.3
20260506115410 75 82 1.0 3.0 0.00 0.00 0.00 93 1009.3
20260506114908 75 173 1.0 3.0 0.00 0.00 0.00 93 1009.4
20260506114405 75 96 1.0 4.0 0.00 0.00 0.00 93 1009.2
20260506113904 75 125 3.0 3.0 0.00 0.00 0.00 93 1009.5
20260506113401 75 304 0.0 2.0 0.00 0.00 0.00 93 1009.2
20260506112857 75 106 2.0 2.0 0.00 0.00 0.00 93 1009.0
20260506112355 75 343 0.0 2.0 0.00 0.00 0.00 93 1009.1
20260506111852 75 48 0.0 2.0 0.00 0.00 0.00 93 1009.0
20260506111350 75 242 0.0 2.0 0.00 0.00 0.00 93 1009.0
20260506110847 75 341 1.0 2.0 0.00 0.00 0.00 93 1009.1
20260506110344 75 222 2.0 3.0 0.00 0.00 0.00 93 1008.9
20260506105841 75 239 1.0 3.0 0.00 0.00 0.00 93 1008.9
20260506105338 75 235 1.0 3.0 0.00 0.00 0.00 93 1008.7
20260506104835 75 263 2.0 3.0 0.00 0.00 0.00 93 1009.1
20260506104333 75 303 2.0 2.0 0.00 0.00 0.00 93 1009.0
20260506103830 75 274 0.0 2.0 0.00 0.00 0.00 92 1009.0
20260506103328 75 273 0.0 2.0 0.00 0.00 0.00 92 1008.9
20260506102825 75 13 0.0 3.0 0.00 0.00 0.00 92 1008.9
20260506102323 75 298 0.0 3.0 0.00 0.00 0.00 92 1008.9
20260506101820 75 66 0.0 3.0 0.00 0.00 0.00 92 1009.1
20260506101315 75 4 2.0 2.0 0.00 0.00 0.00 92 1009.0
20260506100814 75 321 0.0 3.0 0.00 0.00 0.00 92 1009.0
20260506100312 75 209 2.0 4.0 0.00 0.00 0.00 92 1008.9
20260506095810 75 273 0.0 3.0 0.00 0.00 0.00 92 1008.8
20260506095307 75 245 0.0 3.0 0.00 0.00 0.00 92 1008.7
20260506094803 75 243 2.0 2.0 0.00 0.00 0.00 92 1008.7
20260506094302 75 239 2.0 3.0 0.00 0.00 0.00 92 1008.9
20260506093800 75 256 1.0 3.0 0.00 0.00 0.00 91 1008.7
20260506093256 75 228 2.0 3.0 0.00 0.00 0.00 91 1008.5
20260506092755 75 249 3.0 4.0 0.00 0.00 0.00 91 1008.4
20260506092252 75 359 2.0 3.0 0.00 0.00 0.00 91 1008.4
20260506091749 75 124 2.0 4.0 0.00 0.00 0.00 91 1008.3
20260506091247 75 50 0.0 3.0 0.00 0.00 0.00 91 1008.7
20260506090744 75 177 3.0 6.0 0.00 0.00 0.00 91 1008.6
20260506090241 75 254 1.0 3.0 0.00 0.00 0.00 90 1008.6
20260506085738 75 323 1.0 6.0 0.00 0.00 0.00 90 1008.8
20260506085234 75 312 2.0 3.0 0.00 0.00 0.00 90 1008.8
20260506084731 75 234 0.0 4.0 0.00 0.00 0.00 90 1008.6
20260506084227 75 212 2.0 5.0 0.00 0.00 0.00 90 1008.4
20260506083724 76 260 0.0 4.0 0.00 0.00 0.00 90 1008.7
20260506083222 76 189 3.0 5.0 0.00 0.00 0.00 90 1008.5
20260506082719 76 261 2.0 3.0 0.00 0.00 0.00 90 1008.3
20260506082215 76 266 0.0 3.0 0.00 0.00 0.00 90 1008.7
20260506081713 76 271 0.0 3.0 0.00 0.00 0.00 90 1009.0
20260506081210 76 260 2.0 4.0 0.00 0.00 0.00 90 1008.7
20260506080708 76 224 0.0 5.0 0.00 0.00 0.00 90 1008.7
20260506080204 76 300 3.0 3.0 0.00 0.00 0.00 90 1008.7
20260506073148 76 152 2.0 4.0 0.00 0.00 0.00 91 1008.8
20260506072644 76 281 0.0 3.0 0.00 0.00 0.00 91 1008.9
20260506072143 76 313 2.0 3.0 0.00 0.00 0.00 91 1008.8
20260506071640 76 291 2.0 3.0 0.00 0.00 0.00 91 1009.2
20260506071137 76 230 0.0 3.0 0.00 0.00 0.00 91 1009.2
20260506070634 75 172 3.0 4.0 0.00 0.00 0.00 91 1008.8
20260506070131 75 340 2.0 4.0 0.00 0.00 0.00 91 1009.1
20260506062109 75 264 2.0 5.0 0.00 0.00 0.00 91 1009.1
20260506061604 76 287 0.0 3.0 0.00 0.00 0.00 91 1009.3
20260506061102 76 194 1.0 4.0 0.00 0.00 0.00 91 1009.4
20260506060601 76 245 1.0 3.0 0.00 0.00 0.00 90 1009.5
20260506051029 76 236 2.0 5.0 0.00 0.00 0.00 89 1009.4
20260506050527 77 234 3.0 6.0 0.00 0.00 0.00 88 1009.1
20260506045017 77 230 2.0 3.0 0.00 0.00 0.00 88 1009.4
20260506044516 77 326 1.0 3.0 0.00 0.00 0.00 88 1009.2
20260506044012 77 133 2.0 4.0 0.00 0.00 0.00 88 1009.2
20260506043509 77 110 2.0 4.0 0.00 0.00 0.00 87 1009.4
20260506043007 77 100 1.0 2.0 0.00 0.00 0.00 87 1009.1
20260506042501 77 203 3.0 5.0 0.00 0.00 0.00 87 1009.3
20260506041958 77 246 1.0 6.0 0.00 0.00 0.00 87 1009.2
20260506041456 77 133 3.0 3.0 0.00 0.00 0.00 87 1009.0
20260506040953 77 272 0.0 5.0 0.00 0.00 0.00 87 1009.1